Starlink 30185

operational
NORAD ID: 57459 Int'l Des: 2023-107 Owner: SPXS Country: US Constellation: starlink
LEOCIRCULAR

Starlink 30185について

説明を読み込み中...

リアルタイム位置

3D地球を読み込み中...

次回通過

高度履歴

Altitude vs Time

uPlot chart will show altitude changes over time

軌道要素

1 57459U 23107C 25306.50002315 .00096047 00000-0 53667-2 0 9990
2 57459 43.0000 309.8508 0002246 275.6833 81.8623 15.12459607 5823
Epoch: Nov 2, 2025 • Age: 18 hours

現在のステータス

高度 528.8 km
速度 7.60 km/s
衛星直下点 -3.89°S, 6.9°W
打ち上げ日 Jul 28, 2023
運用期間 2.2 years
タイプ internet

技術仕様

分類 Payload
質量 730.00 kg
乾燥質量 700.00 kg
総質量 730.00 kg
長さ 0.30 m
直径 4.10 m
スパン 29.00 m
形状 Box + pan
製造者 SPXS
バスタイプ Starlink V2M
フェーズステータス In Orbit
所有者/国 SPXS/US

大規模コンステレーション

Loading constellations...